DW2789 Weather Reports


Display with metric or nautical units.
time (UTC)temp
F
wind
direction
speed
MPH
gust
MPH
rain 1hr
in
rain 24hr
in
rain mn
in
humidity
%
barometer
mb
20260831131948 55 51 0.0 3.0 0.00 0.00 0.00 53 1013.8
20260831130950 56 51 0.0 1.0 0.00 0.00 0.00 54 1013.7
20260831124949 56 51 0.0 3.0 0.00 0.00 0.00 53 1013.7
20260831123953 56 51 1.0 6.0 0.00 0.00 0.00 52 1013.7
20260831122936 56 49 0.0 4.0 0.00 0.00 0.00 53 1013.7
20260831121944 56 49 0.0 4.0 0.00 0.00 0.00 52 1013.7
20260831120947 56 49 0.0 4.0 0.00 0.00 0.00 52 1013.7
20260831115930 56 49 0.0 1.0 0.00 0.00 0.00 52 1013.8
20260831114952 56 49 0.0 1.0 0.00 0.00 0.00 51 1013.9
20260831113943 57 49 0.0 0.0 0.00 0.00 0.00 51 1013.9
20260831112947 57 49 0.0 3.0 0.00 0.00 0.00 51 1013.8
20260831111930 57 49 0.0 5.0 0.00 0.00 0.00 51 1013.9
20260831110932 57 49 0.0 4.0 0.00 0.00 0.00 51 1013.9
20260831105959 57 49 0.0 5.0 0.00 0.00 0.00 51 1013.9
20260831104943 57 49 0.0 3.0 0.00 0.00 0.00 51 1013.9
20260831103945 57 48 0.0 0.0 0.00 0.00 0.00 51 1013.9
20260831102930 57 48 0.0 0.0 0.00 0.00 0.00 51 1014.0
20260831101940 57 48 0.0 0.0 0.00 0.00 0.00 51 1014.0
20260831100943 57 48 0.0 0.0 0.00 0.00 0.00 51 1014.1
20260831095948 57 49 0.0 0.0 0.00 0.00 0.00 51 1014.1
20260831095010 57 48 0.0 0.0 0.00 0.00 0.00 51 1014.1
20260831093932 57 48 0.0 0.0 0.00 0.00 0.00 51 1014.2
20260831092940 57 49 0.0 1.0 0.00 0.00 0.00 51 1014.3
20260831091943 58 49 0.0 3.0 0.00 0.00 0.00 51 1014.4
20260831090929 58 48 0.0 0.0 0.00 0.00 0.00 51 1014.5
20260831085933 58 48 0.0 0.0 0.00 0.00 0.00 51 1014.5
20260831085000 58 48 0.0 0.0 0.00 0.00 0.00 50 1014.6
20260831083942 58 48 0.0 7.0 0.00 0.00 0.00 50 1014.7
20260831082929 58 45 0.0 1.0 0.00 0.00 0.00 51 1014.7
20260831081935 58 46 0.0 2.0 0.00 0.00 0.00 52 1014.7
20260831080945 58 46 0.0 3.0 0.00 0.00 0.00 52 1014.7
20260831075929 58 46 0.0 0.0 0.00 0.00 0.00 52 1014.7
20260831074932 58 45 0.0 0.0 0.00 0.00 0.00 53 1014.7
20260831073934 58 45 0.0 0.0 0.00 0.00 0.00 53 1014.7
20260831072941 58 45 0.0 0.0 0.00 0.00 0.00 53 1014.9
20260831071944 58 45 0.0 1.0 0.00 0.00 0.00 54 1014.8
20260831070928 57 45 0.0 5.0 0.00 0.00 0.00 54 1014.9
20260831065933 57 45 0.0 0.0 0.00 0.00 0.00 54 1014.9
20260831065000 57 45 0.0 2.0 0.00 0.00 0.00 55 1014.9
20260831063942 56 45 0.0 2.0 0.00 0.00 0.00 56 1014.9
20260831062946 56 45 0.0 0.0 0.00 0.00 0.00 57 1014.9
20260831061930 56 45 0.0 0.0 0.00 0.00 0.00 57 1015.0
20260831060935 56 45 0.0 0.0 0.00 0.00 0.00 56 1015.0
20260831055939 57 45 0.0 0.0 0.00 0.00 0.00 56 1015.0
20260831054942 57 45 0.0 0.0 0.00 0.00 0.00 57 1015.0
20260831053946 57 45 0.0 0.0 0.00 0.00 0.00 56 1015.1
20260831052934 57 45 0.0 0.0 0.00 0.00 0.00 57 1015.1
20260831051009 57 45 0.0 0.0 0.00 0.00 0.00 57 1015.1
20260831045930 57 45 0.0 0.0 0.00 0.00 0.00 57 1015.2
20260831044934 57 45 0.0 0.0 0.00 0.00 0.00 57 1015.2
20260831043958 57 45 0.0 0.0 0.00 0.00 0.00 57 1015.2
20260831042943 57 45 0.0 0.0 0.00 0.00 0.00 57 1015.2
20260831041929 58 45 0.0 0.0 0.00 0.00 0.00 56 1015.2
20260831040935 58 45 0.0 0.0 0.00 0.00 0.00 56 1015.3
20260831035937 59 45 0.0 0.0 0.00 0.00 0.00 56 1015.2
20260831034945 60 45 0.0 0.0 0.00 0.00 0.00 55 1015.2
20260831033948 61 45 0.0 0.0 0.00 0.00 0.00 53 1015.1
20260831032931 62 45 0.0 0.0 0.00 0.00 0.00 51 1015.1
20260831031934 64 45 0.0 0.0 0.00 0.00 0.00 48 1015.1
20260831030942 65 45 0.0 0.0 0.00 0.00 0.00 47 1015.0
20260831025944 66 45 0.0 0.0 0.00 0.00 0.00 44 1015.0
20260831024948 68 45 0.0 0.0 0.00 0.00 0.00 45 1014.9
20260831023932 71 45 0.0 0.0 0.00 0.00 0.00 40 1014.7
20260831021952 74 45 0.0 0.0 0.00 0.00 0.00 40 1014.6
20260831020955 75 45 0.0 0.0 0.00 0.00 0.00 38 1014.5
20260831015936 75 45 0.0 0.0 0.00 0.00 0.00 39 1014.6
20260831014939 75 45 0.0 0.0 0.00 0.00 0.00 37 1014.4
20260831013929 76 45 0.0 0.0 0.00 0.00 0.00 37 1014.5
20260831012935 77 45 0.0 0.0 0.00 0.00 0.00 39 1014.6
20260831011941 77 45 0.0 0.0 0.00 0.00 0.00 36 1014.6
20260831010945 77 45 0.0 0.0 0.00 0.00 0.00 37 1014.7
20260831005932 77 45 0.0 0.0 0.00 0.00 0.00 37 1014.8
20260831004936 77 45 0.0 0.0 0.00 0.00 0.00 36 1014.8
20260831003940 78 45 0.0 0.0 0.00 0.00 0.00 36 1014.9
20260831002943 77 45 0.0 1.0 0.00 0.00 0.00 38 1014.9
20260831002005 77 45 3.0 8.0 0.00 0.00 0.00 34 1014.9
20260831000932 77 45 0.0 4.0 0.00 0.00 0.00 38 1014.9
20260830235934 77 45 0.0 6.0 0.00 0.00 0.00 38 1015.0
20260830234937 76 45 1.0 7.0 0.00 0.00 0.00 36 1015.2
20260830232937 76 45 5.0 10.0 0.00 0.00 0.00 35 1015.3
20260830231944 77 45 0.0 8.0 0.00 0.00 0.00 37 1015.3
20260830230946 77 45 0.0 0.0 0.00 0.00 0.00 34 1015.3
20260830225949 76 45 0.0 7.0 0.00 0.00 0.00 33 1015.3
20260830224932 76 45 0.0 6.0 0.00 0.00 0.00 34 1015.5
20260830223942 75 45 3.0 10.0 0.00 0.00 0.00 34 1015.5
20260830222945 75 45 5.0 13.0 0.00 0.00 0.00 35 1015.5
20260830221931 75 45 0.0 10.0 0.00 0.00 0.00 35 1015.7
20260830220936 74 45 6.0 12.0 0.00 0.00 0.00 35 1015.9
20260830220001 74 46 9.0 12.0 0.00 0.00 0.00 35 1016.1
20260830214947 74 46 7.0 13.0 0.00 0.00 0.00 36 1016.1
20260830213950 74 46 6.0 12.0 0.00 0.00 0.00 37 1016.2
20260830212934 74 46 4.0 12.0 0.00 0.00 0.00 37 1016.3
20260830212001 74 45 8.0 13.0 0.00 0.00 0.00 38 1016.4
20260830210947 73 46 6.0 12.0 0.00 0.00 0.00 38 1016.4
20260830205931 73 46 2.0 8.0 0.00 0.00 0.00 42 1016.5
20260830204007 72 46 0.0 11.0 0.00 0.00 0.00 40 1016.7
20260830202930 71 46 9.0 13.0 0.00 0.00 0.00 38 1016.8
20260830201937 71 46 7.0 12.0 0.00 0.00 0.00 40 1016.9
20260830200940 71 46 7.0 12.0 0.00 0.00 0.00 39 1017.0
20260830195946 71 47 5.0 13.0 0.00 0.00 0.00 42 1017.0
20260830194949 71 47 3.0 10.0 0.00 0.00 0.00 41 1017.0
20260830193958 70 47 6.0 13.0 0.00 0.00 0.00 40 1017.2
20260830192941 70 46 0.0 14.0 0.00 0.00 0.00 45 1017.2
20260830192003 69 46 0.0 0.0 0.00 0.00 0.00 43 1017.4
20260830190944 69 47 6.0 12.0 0.00 0.00 0.00 44 1017.6
20260830185927 68 47 6.0 12.0 0.00 0.00 0.00 44 1017.7
20260830184937 67 47 3.0 12.0 0.00 0.00 0.00 45 1017.8
20260830183941 67 47 0.0 13.0 0.00 0.00 0.00 47 1018.0
20260830182944 66 47 2.0 10.0 0.00 0.00 0.00 45 1018.1
20260830181946 65 46 8.0 14.0 0.00 0.00 0.00 46 1018.3
20260830180954 65 46 5.0 13.0 0.00 0.00 0.00 46 1018.3
20260830175936 65 48 6.0 12.0 0.00 0.00 0.00 50 1018.4
20260830174942 64 48 8.0 14.0 0.00 0.00 0.00 49 1018.5
20260830173946 64 48 7.0 16.0 0.00 0.00 0.00 49 1018.6
20260830172934 64 48 7.0 14.0 0.00 0.00 0.00 48 1018.5
20260830171935 63 48 7.0 17.0 0.00 0.00 0.00 50 1018.6
20260830165931 63 49 4.0 15.0 0.00 0.00 0.00 52 1018.7
20260830164935 63 48 7.0 11.0 0.00 0.00 0.00 51 1018.8
20260830163942 62 49 2.0 13.0 0.00 0.00 0.00 52 1018.9
20260830162945 62 48 5.0 13.0 0.00 0.00 0.00 51 1018.8
20260830161948 62 49 6.0 12.0 0.00 0.00 0.00 52 1018.8
20260830160930 61 49 4.0 9.0 0.00 0.00 0.00 53 1018.9
20260830155938 60 49 2.0 14.0 0.00 0.00 0.00 55 1018.9
20260830154942 60 49 7.0 13.0 0.00 0.00 0.00 55 1018.8
20260830153944 59 49 9.0 13.0 0.00 0.00 0.00 56 1018.9
20260830152930 58 49 3.0 8.0 0.00 0.00 0.00 58 1018.8
20260830151935 57 49 1.0 12.0 0.00 0.00 0.00 59 1018.8
20260830150937 56 49 5.0 12.0 0.00 0.00 0.00 62 1018.9
20260830145943 53 48 0.0 0.0 0.00 0.00 0.00 68 1018.9
20260830144946 53 48 0.0 0.0 0.00 0.00 0.00 67 1018.7
20260830143933 53 48 0.0 0.0 0.00 0.00 0.00 68 1018.7
20260830142955 52 48 0.0 0.0 0.00 0.00 0.00 69 1018.7
20260830140934 51 48 0.0 0.0 0.00 0.00 0.00 71 1018.8
20260830135937 50 49 0.0 0.0 0.00 0.00 0.00 73 1018.8
20260830134944 50 49 0.0 0.0 0.00 0.00 0.00 73 1018.7
20260830133927 50 49 0.0 0.0 0.00 0.00 0.00 73 1018.7
20260830132932 50 49 0.0 0.0 0.00 0.00 0.00 73 1018.8